This is the latest recevied weather packets stored in our database for station/object WD9U. If no packets are shown the sender has not sent any weather packets the latest 10 day(s).
| Time | Temp. | Humidity | Pressure | Rain* | Wind** | Luminosity | Snow |
|---|---|---|---|---|---|---|---|
| 1777988234 | 2.78° C | 54% | 1008.3 hPa | 0 mm | - | 220 W/m² | - |
| 1777987874 | 2.78° C | 57% | 1008.3 hPa | 0 mm | - | 248 W/m² | - |
| 1777987514 | 2.22° C | 57% | 1008.3 hPa | 0 mm | - | 210 W/m² | - |
| 1777987154 | 2.22° C | 56% | 1008.1 hPa | 0 mm | - | 172 W/m² | - |
| 1777986794 | 2.22° C | 56% | 1008.2 hPa | 0 mm | - | 142 W/m² | - |
| 1777986434 | 2.78° C | 58% | 1008.2 hPa | 0 mm | - | 184 W/m² | - |
| 1777986316 | 2.22° C | 59% | 1008.1 hPa | 0 mm | - | 160 W/m² | - |
| 1777986074 | 2.22° C | 58% | 1008 hPa | 0 mm | - | 169 W/m² | - |
| 1777985713 | 2.22° C | 59% | 1008 hPa | 0 mm | - | 214 W/m² | - |
| 1777985353 | 2.22° C | 61% | 1007.9 hPa | 0 mm | - | 162 W/m² | - |
| 1777985115 | 2.22° C | 61% | 1007.7 hPa | 0 mm | - | 110 W/m² | - |
| 1777984993 | 2.22° C | 61% | 1007.8 hPa | 0 mm | - | 108 W/m² | - |
| 1777984633 | 2.22° C | 63% | 1007.7 hPa | 0 mm | - | 68 W/m² | - |
| 1777984273 | 2.22° C | 61% | 1007.6 hPa | 0 mm | - | 56 W/m² | - |
| 1777983913 | 2.22° C | 64% | 1007.4 hPa | 0 mm | - | 44 W/m² | - |
| 1777983552 | 2.22° C | 63% | 1007.3 hPa | 0 mm | - | 44 W/m² | - |
| 1777983191 | 2.22° C | 62% | 1007.3 hPa | 0 mm | - | 41 W/m² | - |
| 1777982831 | 2.22° C | 62% | 1007.2 hPa | 0 mm | - | 49 W/m² | - |
| 1777982713 | 2.22° C | 63% | 1007.2 hPa | 0 mm | - | 50 W/m² | - |
| 1777982471 | 2.22° C | 63% | 1007.1 hPa | 0 mm | - | 48 W/m² | - |
| 1777982110 | 2.22° C | 63% | 1007 hPa | 0 mm | - | 44 W/m² | - |
| 1777981750 | 2.22° C | 65% | 1006.9 hPa | 0 mm | - | 41 W/m² | - |
| 1777981511 | 2.22° C | 65% | 1006.9 hPa | 0 mm | - | 40 W/m² | - |
| 1777981389 | 2.22° C | 66% | 1006.8 hPa | 0 mm | - | 40 W/m² | - |
| 1777981029 | 2.22° C | 67% | 1006.8 hPa | 0 mm | - | 39 W/m² | - |
* Rain latest hour (hover to see other rain measurements)
** Current wind speed in m/s (hover to see current wind gust speed)